#timestamp,LO_Frequency,Hit,StdDev 
1633813215.2,286047005.6,N
1633813235.0,286047005.2,N
1633813235.9,286047005.2,N
1633813255.7,286047001.4,N
1633813275.6,286047001.9,N
1633813295.4,286047004.3,N
1633813315.3,286047005.7,N
1633813335.1,286047007.2,Y
1633813336.0,286047007.2,P
1633813355.8,286047007.5,N
1633813375.7,286047006.9,N
1633813395.5,286047004.5,N
1633813415.3,286047004.9,N
1633813435.2,286047007.6,Y
1633813455.0,286046998.4,P
1633813455.9,286046998.4,N
1633813475.8,286046997.9,N
1633813495.6,286046997.9,N
1633813515.4,286046999.4,N
1633813535.3,286046998.6,N
1633813555.1,286047000.6,N
1633813575.9,286046997.3,N
1633813595.7,286046999.2,N
1633813615.5,286046998.8,N
1633813635.4,286046994.9,N
1633813655.2,286046999.3,N
1633813675.0,286046999.8,N
1633813675.9,286046999.8,N
1633813695.8,286047001.9,N
1633813715.6,286047000.6,N
1633813735.4,286046996.5,N
1633813755.3,286046996.8,N
1633813775.1,286046998.1,N
1633813795.9,286047000.5,N
1633813815.7,286047000.8,N
1633813835.5,286047002.6,N
1633813855.4,286047001.2,N
1633813875.2,286046998.5,N
1633813895.0,286047002.7,N
1633813896.0,286047002.7,N
1633813915.8,286047002.7,N
1633813935.6,286047002.0,N
1633813955.5,286047002.3,N
1633813975.3,286047001.5,N
1633813995.1,286047003.2,N
1633814015.9,286047005.1,N
1633814035.7,286047003.3,N
1633814055.6,286047001.7,N
1633814075.4,286047004.2,N
1633814095.2,286047005.8,N
1633814115.1,286047005.8,N
1633814116.0,286047005.8,N
1633814135.8,286047005.8,N
1633814155.6,286047005.0,N
1633814175.5,286047007.5,N
1633814195.3,286047005.5,N
1633814215.2,286047006.0,N
1633814235.9,286047005.1,N
1633814255.7,286047007.3,N
1633814275.6,286047006.1,N
1633814295.4,286047009.1,Y
1633814315.2,286047005.5,P
1633814335.1,286047005.7,P
1633814336.0,286047005.7,P
1633814355.8,286047001.4,N
1633814375.7,286047001.8,N
1633814395.5,286047003.3,N
1633814415.3,286047003.5,N
1633814435.2,286047005.8,Y
1633814455.0,286047002.3,P
1633814455.9,286047002.3,P
1633814475.8,286047001.9,N
1633814495.6,286047002.8,Y
1633814515.4,286047000.1,P
1633814535.3,286047002.5,N
1633814555.1,286046998.4,N
1633814575.9,286046998.9,N
1633814595.7,286046999.3,N
1633814615.5,286046999.1,N
1633814635.4,286046999.1,N
1633814655.2,286046999.0,N
1633814675.0,286046998.4,N
1633814675.9,286046998.4,N
1633814695.8,286046997.2,N
1633814715.6,286046995.1,Y
1633814735.5,286046998.8,P
1633814755.3,286047001.0,P
1633814775.1,286047001.5,N
1633814795.9,286047001.4,N
1633814815.7,286046999.9,N
1633814835.5,286046999.8,N
1633814855.4,286046999.8,N
1633814875.2,286047002.8,Y
1633814895.1,286047002.7,P
1633814896.0,286047002.7,N
1633814915.8,286047002.3,N
1633814935.6,286047001.7,N
1633814955.5,286047004.1,Y
1633814975.3,286047002.1,P
1633814995.2,286047002.5,P
1633815015.0,286047003.2,P
1633815015.9,286047003.2,Y
1633815035.7,286047000.6,P
1633815055.6,286047000.4,N
1633815075.4,286047000.0,N
1633815095.3,286047002.7,N
1633815115.1,286047002.4,N
1633815135.8,286047001.0,N
1633815155.7,286046998.9,N
1633815175.5,286046999.0,N
1633815195.4,286046998.4,N
1633815215.2,286046997.6,N
1633815235.0,286046996.9,N
1633815235.9,286046996.9,N
1633815255.8,286047000.6,N
1633815275.6,286047000.2,N
1633815295.5,286046998.1,N
1633815315.3,286047000.1,N
1633815335.1,286047000.0,N
1633815355.9,286046998.1,N
1633815375.7,286047001.1,N
1633815395.5,286046999.4,N
1633815415.4,286046998.3,N
1633815435.2,286047002.8,N
1633815455.1,286047002.5,N
1633815456.0,286047002.5,N
1633815475.8,286047002.8,N
1633815495.6,286046998.5,N
1633815515.5,286046998.4,N
1633815535.3,286046999.0,N
1633815555.1,286046999.9,N
1633815575.9,286047000.8,N
1633815595.7,286047000.0,N
1633815615.6,286047002.4,N
1633815635.4,286047002.3,N
1633815655.2,286047002.2,N
1633815675.1,286047001.7,N
1633815676.0,286047001.7,N
1633815695.8,286047000.6,N
1633815715.7,286047002.5,N
1633815735.5,286047003.7,N
1633815755.3,286047005.4,N
1633815775.2,286047005.4,N
1633815795.0,286047004.7,N
1633815795.9,286047004.7,N
1633815815.8,286047006.6,Y
1633815835.6,286047007.1,P
1633815855.4,286047007.6,N
1633815875.3,286047004.7,N
1633815895.1,286047003.3,N
1633815915.8,286047005.0,N
1633815935.7,286047002.9,N
1633815955.5,286047005.6,N
1633815975.4,286047003.5,N
1633815995.2,286047002.6,N
1633816015.0,286047002.0,N
1633816015.9,286047002.0,N
1633816035.8,286047001.8,N
1633816055.6,286047002.2,N
1633816075.4,286047004.1,N
1633816095.3,286047004.8,N
1633816115.1,286047004.8,N
1633816135.9,286047005.6,Y
1633816155.7,286046999.9,P
1633816175.5,286047002.0,N
1633816195.4,286047001.2,N
1633816215.2,286047000.6,N
1633816235.0,286046998.1,N
1633816236.0,286046998.1,N
1633816255.8,286047000.7,N
1633816275.6,286046999.5,N
1633816295.5,286047002.3,N
1633816315.3,286047001.8,N
1633816335.1,286047002.5,N
1633816355.9,286047001.0,N
1633816375.7,286047000.6,N
1633816395.6,286047000.9,N
1633816415.4,286047002.1,N
1633816435.2,286047002.5,N
1633816455.1,286046999.7,N
1633816456.0,286046999.7,N
1633816475.8,286047000.2,N
1633816495.6,286047001.7,N
1633816515.5,286047003.5,N
1633816535.3,286047005.6,Y
1633816555.2,286047003.8,P
1633816575.9,286047001.3,N
1633816595.7,286047004.4,P
1633816615.6,286047001.9,N
1633816635.4,286047003.2,N
1633816655.2,286047003.3,N
1633816675.1,286047007.2,Y
1633816676.0,286047007.2,P
1633816695.8,286047005.6,N
1633816715.7,286047003.0,N
1633816735.5,286047003.0,N
1633816755.3,286046999.8,N
1633816775.2,286047002.1,N
1633816795.0,286047001.7,N
1633816795.9,286047001.7,N
